Volver al catálogo

SCOUT G-1 DEB

ActivoPO
NORAD 19078·DEBRIS·🇺🇸 United States

Lanzado Apr 26, 1988 desde Vandenberg Space Force Base

Loading…

Próximos Pases (próximas 24 horas)

TLE

ActualizadoSource: Space-Track

Época: Sep 14, 2026, 06:30 UTC

1 19078U 88033E   26257.27085456  .00000090  00000-0  13772-3 0  9998
2 19078  90.5564   2.0375 0161272  23.0799   5.4152 13.40912751875697

Sigue SCOUT G-1 DEB en tiempo real con AllMySat

Download on the App Store